[[{"header":{"parameterUnit":"m.s-1","parameterCategory":1,"la1":30.2991,"la2":30.254,"lo1":-89.0895,"lo2":-89.0444,"dy":0.0017,"dx":0.0017,"nx":28,"ny":28,"refTime":"2025-07-15T21:00:00:Z","depth":0,"parameterNumber":2,"parameterNumberName":"U-component_of_WINDS"},"data":[0,0,0,0,0,0,0,0,0,0,0,0,0,0,0,0,0,0,0,0,0,0,0,0,0,0,0,0,0,0,0,0,0,0,0,0,0,0,0,0,0,0,0,0,0,0,0,0,0,0,0,0,0,0,0,0,0,0,-0.8582,-0.8584,0,-0.8756,-0.8758,-0.876,-0.8824,-0.8824,-0.8823,-0.8823,-0.9001,-0.9006,-0.9011,0,0,0,0,0,0,0,0,0,0,0,0,0,-0.8307,-0.8312,-0.8581,-0.8584,-0.8586,-0.8755,-0.8758,-0.876,-0.8824,-0.8824,-0.8823,-0.8822,-0.8999,-0.9005,-0.9012,0,0,0,0,0,0,0,0,0,0,0,0,0,-0.8448,-0.8314,-0.8581,-0.8638,-0.8645,-0.8755,-0.8758,-0.8761,-0.8824,-0.8824,-0.8823,-0.8822,-0.8997,-0.9005,-0.9012,-0.9078,0,0,-0.9037,-0.904,0,0,0,0,0,0,0,0,-0.844,-0.8458,-0.8628,-0.8635,-0.8642,-0.8767,-0.8727,-0.8867,-0.8825,-0.8756,-0.8823,-0.8822,-0.8924,-0.8938,-0.8972,-0.9086,-0.9094,-0.9037,-0.9042,-0.9046,-0.9048,0,0,0,0,0,0,0,-0.843,-0.8451,-0.865,-0.863,-0.8639,-0.8656,-0.8675,-0.8753,-0.8843,-0.8762,-0.8767,-0.8787,-0.8928,-0.8964,-0.8977,-0.9097,-0.9037,-0.9044,-0.9049,-0.9052,-0.9278,-0.9279,0,0,0,0,0,0,-0.8411,-0.8443,-0.8645,-0.8656,-0.8537,-0.8662,-0.8683,-0.8728,-0.8842,-0.8859,-0.8788,-0.8789,-0.8951,-0.8968,-0.8983,-0.907,-0.9045,-0.9053,-0.9057,-0.9277,-0.9278,-0.9279,0,0,0,0,0,0,-0.8405,-0.8428,-0.8638,-0.8551,-0.8579,-0.8667,-0.8717,-0.8732,-0.8769,-0.8861,-0.8878,-0.8809,-0.8951,-0.8972,-0.9055,-0.9077,-0.9056,-0.9064,-0.9275,-0.9277,-0.9279,-0.9243,0,0,0,0,0,0,-0.8397,-0.8426,-0.8451,-0.8551,-0.8583,-0.8706,-0.8719,-0.8736,-0.8782,-0.8786,-0.8885,-0.8901,-0.8952,-0.9043,-0.9063,-0.9088,-0.907,-0.9273,-0.9276,-0.9278,-0.9242,-0.9243,-0.9244,0,0,0,0,0,-0.8387,-0.8433,-0.8451,-0.8476,-0.8616,-0.8707,-0.8725,-0.8783,-0.8784,-0.881,-0.887,-0.8898,-0.9071,-0.9051,-0.9074,-0.9101,-0.9272,-0.9275,-0.9278,-0.9242,-0.9243,-0.9244,0,0,0,0,0,0,-0.8332,-0.8447,-0.8469,-0.8549,-0.8618,-0.8717,-0.8752,-0.8782,-0.8852,-0.8853,-0.8923,-0.8944,-0.9022,-0.907,-0.9045,-0.9173,-0.9174,-0.9181,-0.9139,-0.914,-0.9141,-0.9128,-0.9076,0,0,0,0,0,-0.8329,-0.8393,-0.849,-0.8551,-0.8585,-0.8662,-0.8704,-0.8743,-0.8818,-0.8847,-0.8913,-0.8984,-0.9055,-0.91,-0.9171,-0.925,-0.9274,-0.928,-0.9281,-0.9281,-0.9287,-0.9336,-0.9341,-0.9289,-0.9289,-0.9289,0,0,-0.8324,-0.8395,-0.843,-0.8542,-0.86,-0.8665,-0.8686,-0.8754,-0.8804,-0.8857,-0.894,-0.8991,-0.9075,-0.9157,-0.9197,-0.92,-0.9307,-0.9285,-0.9284,-0.929,-0.9339,-0.9344,-0.9348,-0.9291,-0.929,-0.929,0,0,-0.8348,-0.8407,-0.8466,-0.8525,-0.8613,-0.8665,-0.8679,-0.8776,-0.8812,-0.8896,-0.8939,-0.8999,-0.9119,-0.9179,-0.9225,-0.9276,-0.9305,-0.9297,-0.9301,-0.9347,-0.9352,-0.9356,-0.9376,-0.9382,-0.9302,-0.9302,-0.9302,0,-0.8331,-0.8431,-0.8492,-0.8559,-0.8608,-0.8661,-0.8722,-0.8776,-0.8882,-0.8915,-0.8917,-0.9072,-0.9132,-0.923,-0.9243,-0.9278,-0.9298,-0.9286,-0.9346,-0.9351,-0.9355,-0.9376,-0.9383,-0.9301,-0.9301,-0.9301,-0.9301,0,-0.8406,-0.8475,-0.8512,-0.8615,-0.8668,-0.8731,-0.8804,-0.8851,-0.8887,-0.8939,-0.9026,-0.9101,-0.9189,-0.9215,-0.9249,-0.9319,-0.9319,-0.9332,-0.9335,-0.9358,-0.9378,-0.9386,-0.9299,-0.9299,-0.93,-0.93,0,0,-0.8398,-0.8537,-0.855,-0.8599,-0.8702,-0.8757,-0.8824,-0.8911,-0.8951,-0.9023,-0.9082,-0.9185,-0.9199,-0.9251,-0.9293,-0.9334,-0.9373,-0.9344,-0.9347,-0.9348,-0.9458,-0.9447,-0.9455,-0.9393,-0.9395,-0.9396,-0.9451,0,-0.8438,-0.856,-0.8619,-0.8716,-0.8782,-0.8835,-0.8894,-0.8964,-0.9016,-0.908,-0.9137,-0.921,-0.9222,-0.9254,-0.9297,-0.9359,-0.9396,-0.9356,-0.945,-0.9453,-0.9428,-0.9466,-0.9454,-0.9503,-0.9459,-0.9461,-0.9462,0,-0.8499,-0.8573,-0.8676,-0.8775,-0.8805,-0.8856,-0.8943,-0.9003,-0.9085,-0.912,-0.918,-0.9222,-0.9296,-0.9293,-0.9398,-0.937,-0.9412,-0.9449,-0.9452,-0.9464,-0.9459,-0.948,-0.9519,-0.9527,-0.9474,-0.9473,-0.9472,0,-0.8486,-0.8611,-0.869,-0.873,-0.8846,-0.8882,-0.8932,-0.9013,-0.9063,-0.9138,-0.9172,-0.9254,-0.93,-0.9364,-0.9428,-0.9419,-0.9528,-0.9529,-0.956,-0.9559,-0.958,-0.9578,-0.9629,-0.9606,-0.9605,-0.9605,-0.9605,0,-0.8524,-0.8585,-0.8686,-0.8734,-0.8806,-0.8875,-0.8945,-0.8999,-0.9071,-0.9133,-0.9183,-0.924,-0.932,-0.9387,-0.9438,-0.9519,-0.9538,-0.957,-0.9583,-0.9566,-0.9562,-0.9595,-0.9594,-0.9607,-0.9607,-0.9607,-0.9606,0,-0.852,-0.859,-0.868,-0.8784,-0.8812,-0.886,-0.895,-0.9,-0.9055,-0.9132,-0.9154,-0.9241,-0.9323,-0.9394,-0.9501,-0.9536,-0.962,-0.9634,-0.9592,-0.9599,-0.9627,-0.9624,-0.9701,-0.9716,-0.9681,-0.9681,-0.9681,0,-0.854,-0.8589,-0.8699,-0.8744,-0.8794,-0.8866,-0.8917,-0.8988,-0.904,-0.9139,-0.9178,-0.9264,-0.9336,-0.9466,-0.9539,-0.9622,-0.964,-0.9662,-0.9653,-0.9636,-0.9643,-0.964,-0.9646,-0.9662,-0.9662,-0.9662,-0.9662,0,-0.8569,-0.8602,-0.8674,-0.876,-0.8821,-0.8891,-0.8963,-0.8997,-0.9082,-0.9138,-0.9223,-0.9279,-0.9391,-0.9477,-0.9569,-0.9622,-0.9657,-0.9665,-0.9677,-0.966,-0.9635,-0.9651,-0.9595,-0.9662,-0.9662,-0.9662,-0.9662,-0.9662,-0.8579,-0.8627,-0.8713,-0.8793,-0.8855,-0.8922,-0.8975,-0.9038,-0.911,-0.9207,-0.9245,-0.9332,-0.9417,-0.9545,-0.9598,-0.9669,-0.9674,-0.969,-0.9695,-0.9698,-0.9697,-0.9623,-0.9685,-0.9685,-0.9686,-0.9686,-0.9686,0,-0.8612,-0.8671,-0.8744,-0.8844,-0.8908,-0.8936,-0.9018,-0.907,-0.9147,-0.9222,-0.9294,-0.9393,-0.9478,-0.9558,-0.9647,-0.9689,-0.9707,-0.971,-0.9708,-0.972,-0.9686,-0.9668,-0.9693,-0.9693,-0.9693,-0.9693,-0.9693,-0.9693,-0.8637,-0.872,-0.8763,-0.8879,-0.8937,-0.9024,-0.9069,-0.9132,-0.9193,-0.9302,-0.9373,-0.9426,-0.9505,-0.96,-0.9679,-0.9701,-0.9732,-0.9731,-0.9757,-0.9724,-0.9722,-0.972,-0.9704,-0.9737,-0.9737,-0.9786,-0.9786,-0.9787]},{"header":{"parameterUnit":"m.s-1","parameterCategory":1,"la1":30.2991,"la2":30.254,"lo1":-89.0895,"lo2":-89.0444,"dy":0.0017,"dx":0.0017,"nx":28,"ny":28,"refTime":"2025-07-15T21:00:00:Z","depth":0,"parameterNumber":3,"parameterNumberName":"V-component_of_WINDS"},"data":[0,0,0,0,0,0,0,0,0,0,0,0,0,0,0,0,0,0,0,0,0,0,0,0,0,0,0,0,0,0,0,0,0,0,0,0,0,0,0,0,0,0,0,0,0,0,0,0,0,0,0,0,0,0,0,0,0,0,3.1834,3.1835,0,3.1921,3.1922,3.1923,3.1948,3.1948,3.1948,3.1947,3.2034,3.2037,3.204,0,0,0,0,0,0,0,0,0,0,0,0,0,3.1686,3.1689,3.1834,3.1835,3.1836,3.1921,3.1922,3.1923,3.1949,3.1948,3.1947,3.1947,3.2033,3.2036,3.204,0,0,0,0,0,0,0,0,0,0,0,0,0,3.176,3.169,3.1834,3.1859,3.1862,3.1921,3.1922,3.1924,3.1949,3.1948,3.1947,3.1947,3.2032,3.2036,3.204,3.2079,0,0,3.2053,3.2055,0,0,0,0,0,0,0,0,3.1755,3.1765,3.1854,3.1857,3.1861,3.1923,3.1902,3.1976,3.1949,3.1916,3.1947,3.1946,3.1998,3.2005,3.2022,3.2083,3.2087,3.2053,3.2056,3.2057,3.2059,0,0,0,0,0,0,0,3.175,3.1761,3.1868,3.1855,3.1859,3.1865,3.1875,3.1916,3.1959,3.1919,3.1921,3.1931,3.1999,3.2018,3.2025,3.2088,3.2053,3.2057,3.2059,3.2061,3.2186,3.2186,0,0,0,0,0,0,3.1741,3.1757,3.1866,3.1871,3.1805,3.1868,3.1879,3.1904,3.1959,3.1967,3.1931,3.1932,3.2012,3.202,3.2028,3.2077,3.2057,3.2061,3.2064,3.2185,3.2186,3.2187,0,0,0,0,0,0,3.1738,3.1751,3.1862,3.1815,3.1829,3.1872,3.1899,3.1906,3.1925,3.1969,3.1976,3.1943,3.2011,3.2022,3.2066,3.208,3.2063,3.2067,3.2184,3.2185,3.2186,3.2175,0,0,0,0,0,0,3.1734,3.1749,3.1765,3.1815,3.1832,3.19,3.19,3.1908,3.1932,3.1934,3.1982,3.1989,3.2012,3.206,3.207,3.2085,3.207,3.2183,3.2184,3.2186,3.2174,3.2176,3.2177,0,0,0,0,0,3.1728,3.1758,3.1766,3.1779,3.1852,3.19,3.191,3.1936,3.1933,3.1949,3.1977,3.1987,3.2077,3.2064,3.2076,3.2093,3.2182,3.2184,3.2186,3.2174,3.2175,3.2177,0,0,0,0,0,0,3.1708,3.1765,3.1774,3.1821,3.1856,3.1905,3.1925,3.1938,3.1973,3.1973,3.2003,3.2014,3.2056,3.2079,3.2064,3.2133,3.213,3.2134,3.2116,3.2118,3.212,3.2113,3.2073,0,0,0,0,0,3.1709,3.1745,3.1792,3.1829,3.1846,3.1883,3.1905,3.1922,3.1959,3.1973,3.2005,3.2039,3.2075,3.2098,3.2134,3.2178,3.2188,3.2195,3.2196,3.2197,3.22,3.2225,3.2228,3.2193,3.2193,3.2193,0,0,3.1712,3.1747,3.1767,3.1826,3.1855,3.1889,3.1895,3.1931,3.1957,3.1979,3.2022,3.2047,3.2088,3.2132,3.2153,3.2152,3.2213,3.22,3.22,3.2203,3.2227,3.223,3.2233,3.2194,3.2194,3.2194,0,0,3.1734,3.1765,3.1798,3.1827,3.1871,3.1896,3.1904,3.1951,3.1968,3.2013,3.203,3.2061,3.2122,3.2151,3.2173,3.2206,3.2216,3.2217,3.2223,3.2246,3.2249,3.2252,3.2262,3.2266,3.222,3.222,3.222,0,3.1731,3.1785,3.1814,3.185,3.1874,3.1897,3.193,3.1957,3.201,3.2026,3.2025,3.2103,3.2132,3.2183,3.2191,3.2209,3.2218,3.2211,3.2246,3.2249,3.2252,3.2263,3.2267,3.222,3.222,3.222,3.222,0,3.1778,3.1815,3.1837,3.1888,3.1916,3.195,3.1984,3.2008,3.2023,3.2047,3.2092,3.2128,3.2171,3.2185,3.22,3.2238,3.2236,3.224,3.2237,3.2255,3.2265,3.2269,3.2219,3.2219,3.2219,3.2219,0,0,3.1789,3.1856,3.1864,3.1887,3.1937,3.1966,3.2002,3.2044,3.2064,3.21,3.213,3.2182,3.2186,3.2212,3.223,3.2251,3.2274,3.2253,3.2254,3.2254,3.2317,3.2312,3.2316,3.2282,3.2282,3.2283,3.2313,0,3.1816,3.1881,3.1908,3.196,3.1994,3.2015,3.2046,3.208,3.2104,3.2135,3.2162,3.2198,3.2201,3.2217,3.2238,3.2266,3.2286,3.2265,3.2308,3.231,3.2296,3.2322,3.2317,3.2344,3.2317,3.2318,3.2319,0,3.1856,3.1893,3.1948,3.1994,3.2009,3.2037,3.2078,3.2108,3.2147,3.2163,3.2192,3.2209,3.2247,3.2242,3.2294,3.2278,3.2298,3.2315,3.2316,3.232,3.2314,3.2325,3.2353,3.2356,3.2325,3.2325,3.2324,0,3.1857,3.192,3.1961,3.1981,3.2036,3.2054,3.2078,3.2116,3.214,3.2176,3.2192,3.2232,3.2253,3.2283,3.2311,3.2306,3.236,3.2358,3.2373,3.2372,3.2382,3.2381,3.2412,3.2397,3.2397,3.2397,3.2397,0,3.1884,3.1916,3.1962,3.1987,3.2024,3.2055,3.2091,3.2116,3.215,3.2179,3.2201,3.2229,3.2264,3.2296,3.2319,3.2357,3.2367,3.238,3.2386,3.2378,3.2376,3.239,3.2388,3.2398,3.2398,3.2398,3.2397,0,3.189,3.1922,3.1968,3.2017,3.203,3.2055,3.2096,3.2121,3.2146,3.2183,3.2194,3.2233,3.2272,3.2303,3.2354,3.2369,3.2409,3.2416,3.2396,3.2398,3.2411,3.2409,3.2451,3.2458,3.244,3.244,3.244,0,3.1904,3.193,3.1981,3.2003,3.2027,3.2061,3.2086,3.2118,3.2142,3.2189,3.2208,3.2248,3.2282,3.2343,3.2376,3.2414,3.2421,3.2434,3.2427,3.2418,3.242,3.2418,3.242,3.2433,3.2434,3.2434,3.2434,0,3.1926,3.1941,3.1976,3.2016,3.2045,3.2078,3.2112,3.2129,3.2166,3.2193,3.2233,3.2259,3.2311,3.2351,3.2393,3.2417,3.2432,3.2436,3.2441,3.2432,3.2419,3.2426,3.2396,3.2434,3.2434,3.2434,3.2434,3.2434,3.1936,3.1959,3.1999,3.2037,3.2066,3.2097,3.2123,3.2151,3.2185,3.223,3.2247,3.2288,3.2326,3.2385,3.2409,3.2441,3.2442,3.245,3.2452,3.2453,3.2452,3.2416,3.2449,3.2449,3.2449,3.2449,3.2449,0,3.1957,3.1984,3.2019,3.2066,3.2096,3.2107,3.2145,3.2169,3.2205,3.224,3.2273,3.2319,3.2357,3.2394,3.2434,3.2453,3.246,3.2462,3.2461,3.2466,3.2449,3.244,3.2456,3.2456,3.2456,3.2456,3.2456,3.2456,3.1972,3.2012,3.2031,3.2086,3.2112,3.2153,3.2173,3.2202,3.223,3.228,3.2312,3.2336,3.2371,3.2415,3.2451,3.246,3.2474,3.2474,3.2485,3.2468,3.2467,3.2466,3.2457,3.2477,3.2477,3.2499,3.2499,3.2499]}]]